Weather History for Dansville, NY

Change the Weather History Date:

Tuesday, December 24, 2013

  Actual Average Record
Temperature  
Mean Temperature 20 °F -  
Max Temperature 28 °F 37 °F 60 °F (1957)
Min Temperature 12 °F 19 °F -7 °F (1960)
Degree Days  
Heating Degree Days 45    
Moisture  
Dew Point 18 °F    
Average Humidity 82    
Maximum Humidity 93    
Minimum Humidity 64    
Precipitation  
Precipitation 0.01 in - - ()
Sea Level Pressure  
Sea Level Pressure 30.28 in    
Wind  
Wind Speed 7 mph (NW)    
Max Wind Speed 17 mph    
Max Gust Speed 18 mph    
Visibility 4 miles    
Events Fog , Snow    
Averages and records for this station are not official NWS values.
T = Trace of Precipitation, MM = Missing Value Source: NWS Daily Summary

Daily Weather History Graph

Daily Weather History Graph

Search for Another Location

Airport:

Trip Planner

Search our weather history database for the weather conditions in past years. The results will help you decide how hot, cold, wet, or windy it might be!

Date:

Astronomy

Dec. 24, 2013 Rise Set
Actual Time 7:38 AM EST 4:42 PM EST
Civil Twilight 7:06 AM EST 5:14 PM EST
Nautical Twilight 6:31 AM EST 5:50 PM EST
Astronomical Twilight 5:56 AM EST 6:24 PM EST
Moon 11:57 PM EST (12/24) 11:23 AM EST (12/24)
Length of Visible Light 10h 07m
Length of Day
9h 03m
Waning Gibbous, 59% of the Moon is Illuminated
Dec 24
Waning Gibbous
Dec 25
Last Quarter
Jan 1
New
Jan 7
First Quarter
Jan 15
Full

Hourly Weather History & Observations

Time (EST) Temp. Windchill Dew Point Humidity Pressure Visibility Wind Dir Wind Speed Gust Speed Precip Events Conditions
12:25 AM 28.4 °F 18.5 °F 17.6 °F 64% 30.25 in 10.0 mi NNW 11.5 mph - N/A   Overcast
12:54 AM 27.0 °F 19.5 °F 18.0 °F 69% 30.30 in 10.0 mi NNW 6.9 mph - N/A   Overcast
1:54 AM 27.0 °F 23.0 °F 18.0 °F 69% 30.30 in 10.0 mi NNW 3.5 mph - N/A   Overcast
2:54 AM 27.0 °F - 18.0 °F 69% 30.29 in 9.0 mi Calm Calm - 0.00 in   Overcast
3:54 AM 26.1 °F 21.9 °F 19.0 °F 75% 30.27 in 10.0 mi SSE 3.5 mph - 0.00 in   Overcast
4:54 AM 27.0 °F - 19.9 °F 75% 30.25 in 10.0 mi Calm Calm - N/A   Overcast
5:54 AM 27.0 °F - 21.0 °F 78% 30.25 in 10.0 mi Calm Calm - 0.00 in   Overcast
6:24 AM 26.6 °F - 21.2 °F 80% 30.19 in 6.0 mi Calm Calm - 0.00 in   Haze
6:54 AM 27.0 °F - 21.9 °F 81% 30.24 in 4.0 mi Calm Calm - 0.00 in Snow Light Snow
7:45 AM 26.6 °F - 21.2 °F 80% 30.18 in 4.0 mi Calm Calm - 0.00 in Snow Light Snow
7:54 AM 27.0 °F - 21.9 °F 81% 30.23 in 1.5 mi Calm Calm - 0.00 in Snow Light Snow
8:24 AM 26.6 °F - 23.0 °F 86% 30.18 in 0.8 mi Calm Calm - 0.00 in Snow Light Snow
8:43 AM 26.6 °F - 24.8 °F 93% 30.18 in 1.0 mi Calm Calm - 0.00 in Snow Light Snow
8:54 AM 27.0 °F - 24.1 °F 89% 30.23 in 1.2 mi Calm Calm - 0.00 in Snow Light Snow
9:10 AM 26.6 °F - 24.8 °F 93% 30.18 in 3.0 mi Calm Calm - 0.00 in Snow Light Snow
9:21 AM 26.6 °F - 24.8 °F 93% 30.18 in 1.8 mi Calm Calm - 0.00 in Snow Light Snow
9:54 AM 27.0 °F - 24.1 °F 89% 30.23 in 2.0 mi Calm Calm - 0.00 in Snow Light Snow
10:00 AM 28.4 °F - 24.8 °F 86% 30.18 in 1.8 mi Calm Calm - 0.00 in Snow Light Snow
10:19 AM 26.6 °F 16.8 °F 24.8 °F 93% 30.18 in 0.8 mi NNW 10.4 mph - 0.00 in Snow Light Snow
10:25 AM 26.6 °F 16.2 °F 24.8 °F 93% 30.19 in 0.5 mi NW 11.5 mph - 0.01 in Fog , Snow Snow
10:32 AM 26.6 °F 15.2 °F 24.8 °F 93% 30.19 in 0.2 mi NW 13.8 mph - 0.01 in Fog , Snow Snow
10:51 AM 26.6 °F 15.7 °F 23.0 °F 86% 30.19 in 0.2 mi NW 12.7 mph - 0.01 in Fog , Snow Heavy Snow
10:54 AM 26.1 °F 14.0 °F 24.1 °F 92% 30.25 in 0.2 mi NW 15.0 mph - 0.01 in Fog , Snow Snow
11:03 AM 26.6 °F 15.7 °F 23.0 °F 86% 30.20 in 0.5 mi NW 12.7 mph - 0.00 in Fog , Snow Snow
11:37 AM 26.6 °F 18.2 °F 21.2 °F 80% 30.19 in 1.0 mi NW 8.1 mph - 0.00 in Snow Light Snow
11:48 AM 26.6 °F 16.2 °F 21.2 °F 80% 30.19 in 0.5 mi NW 11.5 mph - 0.00 in Fog , Snow Snow
11:54 AM 25.0 °F 13.1 °F 21.9 °F 88% 30.25 in 0.2 mi NW 13.8 mph - 0.00 in Fog , Snow Snow
12:13 PM 24.8 °F 14.0 °F 21.2 °F 86% 30.20 in 0.2 mi NW 11.5 mph - 0.00 in Fog , Snow Heavy Snow
12:17 PM 24.8 °F 12.9 °F 21.2 °F 86% 30.20 in 0.5 mi NW 13.8 mph 18.4 mph 0.00 in Fog , Snow Snow
12:24 PM 24.8 °F 14.0 °F 19.4 °F 80% 30.20 in 2.0 mi NW 11.5 mph - 0.00 in Snow Light Snow
12:33 PM 24.8 °F 11.5 °F 19.4 °F 80% 30.21 in 4.0 mi NW 17.3 mph - 0.00 in Snow Light Snow
12:52 PM 23.0 °F 9.6 °F 19.4 °F 86% 30.21 in 1.8 mi NNW 16.1 mph - 0.00 in Snow Light Snow
12:54 PM 23.0 °F 10.1 °F 19.0 °F 85% 30.27 in 1.5 mi NW 15.0 mph - 0.00 in Snow Light Snow
1:04 PM 23.0 °F 10.1 °F 17.6 °F 80% 30.21 in 3.0 mi NW 15.0 mph - 0.00 in Snow Light Snow
1:11 PM 23.0 °F 10.6 °F 17.6 °F 80% 30.21 in 7.0 mi NW 13.8 mph - 0.00 in Snow Light Snow
1:54 PM 23.0 °F 11.7 °F 17.1 °F 78% 30.27 in 5.0 mi NW 11.5 mph - 0.00 in Snow Light Snow
2:54 PM 21.9 °F 11.7 °F 16.0 °F 78% 30.30 in 1.2 mi NW 9.2 mph - 0.00 in Snow Light Snow
3:02 PM 21.2 °F 11.7 °F 17.6 °F 86% 30.25 in 0.5 mi NW 8.1 mph - 0.00 in Snow Snow
3:06 PM 21.2 °F 12.6 °F 17.6 °F 86% 30.25 in 0.2 mi NW 6.9 mph - 0.00 in Fog , Snow Snow
3:20 PM 21.2 °F 10.1 °F 17.6 °F 86% 30.26 in 0.5 mi NW 10.4 mph - 0.00 in Fog , Snow Snow
3:22 PM 21.2 °F 9.5 °F 17.6 °F 86% 30.26 in 0.2 mi NW 11.5 mph - 0.00 in Fog , Snow Snow
3:31 PM 21.2 °F 10.1 °F 19.4 °F 93% 30.26 in 0.5 mi NW 10.4 mph - 0.00 in Fog , Snow Snow
3:51 PM 21.2 °F 8.3 °F 17.6 °F 86% 30.28 in 1.0 mi NNW 13.8 mph - 0.00 in Snow Light Snow
3:54 PM 21.0 °F 9.3 °F 17.1 °F 85% 30.34 in 1.5 mi NNW 11.5 mph - 0.00 in Snow Light Snow
3:58 PM 21.2 °F 8.3 °F 17.6 °F 86% 30.28 in 3.0 mi NW 13.8 mph - 0.00 in Snow Light Snow
4:20 PM 21.2 °F 8.9 °F 15.8 °F 80% 30.30 in 2.0 mi NW 12.7 mph - 0.00 in Snow Light Snow
4:30 PM 19.4 °F 4.5 °F 15.8 °F 86% 30.31 in 7.0 mi NNW 17.3 mph - 0.00 in   Overcast
4:52 PM 19.4 °F 6.0 °F 15.8 °F 86% 30.32 in 1.8 mi NNW 13.8 mph - 0.00 in Snow Light Snow
4:54 PM 19.9 °F 6.7 °F 15.1 °F 81% 30.38 in 1.8 mi NW 13.8 mph - 0.00 in Snow Light Snow
5:02 PM 19.4 °F 6.0 °F 15.8 °F 86% 30.33 in 3.0 mi NW 13.8 mph - 0.00 in Snow Light Snow
5:54 PM 15.1 °F 5.2 °F 10.0 °F 80% 30.42 in 10.0 mi NW 6.9 mph - 0.00 in   Mostly Cloudy
6:54 PM 14.0 °F 6.5 °F 10.0 °F 84% 30.45 in 10.0 mi WNW 4.6 mph - N/A   Mostly Cloudy
7:14 PM 15.8 °F 6.1 °F 8.6 °F 73% 30.40 in 9.0 mi NNW 6.9 mph - 0.00 in Snow Light Snow
7:21 PM 14.0 °F 2.9 °F 8.6 °F 79% 30.40 in 9.0 mi NW 8.1 mph - 0.00 in   Overcast
7:54 PM 16.0 °F 8.8 °F 12.0 °F 84% 30.47 in 2.0 mi NNW 4.6 mph - 0.00 in Snow Light Snow
8:09 PM 14.0 °F 6.5 °F 10.4 °F 86% 30.42 in 4.0 mi NNW 4.6 mph - 0.00 in Snow Light Snow
8:54 PM 16.0 °F 6.3 °F 10.0 °F 77% 30.48 in 8.0 mi Variable 6.9 mph - 0.00 in   Overcast
9:54 PM 15.1 °F 7.7 °F 7.0 °F 70% 30.51 in 5.0 mi West 4.6 mph 17.3 mph 0.00 in Snow Light Snow
10:43 PM 14.0 °F 3.9 °F 6.8 °F 73% 30.46 in 10.0 mi WNW 6.9 mph - 0.00 in   Overcast
10:54 PM 14.0 °F 3.9 °F 7.0 °F 74% 30.52 in 10.0 mi WNW 6.9 mph - 0.00 in   Overcast
11:33 PM 12.2 °F - 6.8 °F 79% 30.47 in 10.0 mi Calm Calm - N/A   Scattered Clouds
11:54 PM 12.9 °F 3.8 °F 5.0 °F 71% 30.53 in 10.0 mi WNW 5.8 mph - N/A   Clear